UAL450 KRNO-KSFO

Flight info

Callsign UAL450
Flight time 0h 45m
Altitude 26000
Route SWR MOD CEDES
Aircraft B738/M-SDE2E3FGHIRWXY/LB1

Departure

Time 2026-05-05 01:26
Airport Reno Tahoe International Airport (KRNO)

Arrival

Time 2026-05-05 02:12
Airport San Francisco International Airport (KSFO)
Time Latitude Longitude Altitude Speed Heading
2026-05-05 00:58 39.50649 -119.77380 4512 ft 0 kts 360°
2026-05-05 01:17 39.50637 -119.77380 4546 ft 2 kts
2026-05-05 01:18 39.50614 -119.77381 4544 ft 2 kts
2026-05-05 01:18 39.50593 -119.77383 4546 ft 1 kts
2026-05-05 01:20 39.50603 -119.77358 4547 ft 4 kts 95°
2026-05-05 01:21 39.50594 -119.77322 4546 ft 4 kts 107°
2026-05-05 01:21 39.50590 -119.77284 4546 ft 5 kts 96°
2026-05-05 01:21 39.50588 -119.77221 4545 ft 10 kts 89°
2026-05-05 01:21 39.50624 -119.77152 4545 ft 10 kts 11°
2026-05-05 01:22 39.50702 -119.77150 4581 ft 13 kts
2026-05-05 01:22 39.50797 -119.77150 4581 ft 13 kts 360°
2026-05-05 01:22 39.50888 -119.77150 4582 ft 13 kts 360°
2026-05-05 01:22 39.50977 -119.77150 4582 ft 13 kts
2026-05-05 01:23 39.51064 -119.77150 4582 ft 12 kts
2026-05-05 01:23 39.51155 -119.77149 4581 ft 14 kts
2026-05-05 01:23 39.51253 -119.77149 4581 ft 14 kts
2026-05-05 01:23 39.51346 -119.77142 4583 ft 13 kts 24°
2026-05-05 01:24 39.51373 -119.77056 4583 ft 6 kts 87°
2026-05-05 01:24 39.51373 -119.77047 4583 ft 0 kts 88°
2026-05-05 01:25 39.51373 -119.77043 4583 ft 2 kts 88°
2026-05-05 01:25 39.51375 -119.76995 4581 ft 10 kts 88°
2026-05-05 01:25 39.51332 -119.76928 4581 ft 11 kts 164°
2026-05-05 01:26 39.51114 -119.76926 4582 ft 64 kts 180°
2026-05-05 01:26 39.50436 -119.76926 4580 ft 129 kts 180°
2026-05-05 01:26 39.49354 -119.76927 4600 ft 179 kts 181°
2026-05-05 01:26 39.48087 -119.76914 5257 ft 181 kts 181°
2026-05-05 01:27 39.46815 -119.76926 6001 ft 189 kts 185°
2026-05-05 01:27 39.45425 -119.76955 6404 ft 209 kts 185°
2026-05-05 01:27 39.43931 -119.76988 6773 ft 224 kts 184°
2026-05-05 01:27 39.42303 -119.77003 7125 ft 240 kts 182°
2026-05-05 01:28 39.40542 -119.77013 7408 ft 267 kts 182°
2026-05-05 01:28 39.38630 -119.77038 7992 ft 275 kts 181°
2026-05-05 01:28 39.36743 -119.77079 8957 ft 272 kts 180°
2026-05-05 01:28 39.34794 -119.77099 9390 ft 292 kts 179°
2026-05-05 01:29 39.32690 -119.77114 9826 ft 308 kts 179°
2026-05-05 01:29 39.30560 -119.77197 10762 ft 305 kts 184°
2026-05-05 01:29 39.28451 -119.77802 11303 ft 320 kts 195°
2026-05-05 01:29 39.26241 -119.78615 11609 ft 341 kts 193°
2026-05-05 01:30 39.23897 -119.79361 12094 ft 353 kts 191°
2026-05-05 01:30 39.21472 -119.80046 12667 ft 362 kts 189°
2026-05-05 01:30 39.18999 -119.80755 13478 ft 365 kts 193°
2026-05-05 01:30 39.16693 -119.82189 14237 ft 375 kts 217°
2026-05-05 01:31 39.14967 -119.84724 14897 ft 381 kts 240°
2026-05-05 01:31 39.14073 -119.87937 15608 ft 384 kts 263°
2026-05-05 01:31 39.14097 -119.91358 16306 ft 383 kts 283°
2026-05-05 01:31 39.14633 -119.94726 17048 ft 386 kts 285°
2026-05-05 01:32 39.15234 -119.98134 17716 ft 392 kts 286°
2026-05-05 01:32 39.15858 -120.01583 18318 ft 400 kts 287°
2026-05-05 01:32 39.16489 -120.05101 18893 ft 405 kts 286°
2026-05-05 01:32 39.17106 -120.08615 19569 ft 408 kts 286°
2026-05-05 01:33 39.17721 -120.12185 20230 ft 410 kts 286°
2026-05-05 01:33 39.18336 -120.15802 20858 ft 414 kts 286°
2026-05-05 01:33 39.18950 -120.19447 21473 ft 418 kts 286°
2026-05-05 01:33 39.19567 -120.23127 22064 ft 422 kts 286°
2026-05-05 01:34 39.20187 -120.26844 22674 ft 426 kts 286°
2026-05-05 01:34 39.20812 -120.30596 23283 ft 430 kts 286°
2026-05-05 01:34 39.21440 -120.34378 23819 ft 433 kts 286°
2026-05-05 01:34 39.22072 -120.38192 24285 ft 436 kts 286°
2026-05-05 01:35 39.22708 -120.42035 24763 ft 440 kts 286°
2026-05-05 01:35 39.23340 -120.45861 25211 ft 443 kts 286°
2026-05-05 01:35 39.23982 -120.49756 25676 ft 445 kts 286°
2026-05-05 01:35 39.24626 -120.53669 26029 ft 449 kts 286°
2026-05-05 01:36 39.25266 -120.57578 26015 ft 438 kts 286°
2026-05-05 01:36 39.25879 -120.61360 26011 ft 423 kts 286°
2026-05-05 01:36 39.26476 -120.65029 26029 ft 416 kts 286°
2026-05-05 01:36 39.27073 -120.68688 26039 ft 416 kts 286°
2026-05-05 01:37 39.27670 -120.72344 26042 ft 417 kts 286°
2026-05-05 01:37 39.28268 -120.76008 26046 ft 417 kts 286°
2026-05-05 01:37 39.28863 -120.79671 26048 ft 417 kts 286°
2026-05-05 01:37 39.29457 -120.83341 26041 ft 418 kts 286°
2026-05-05 01:38 39.29766 -120.87084 26003 ft 424 kts 268°
2026-05-05 01:38 39.29118 -120.90798 26046 ft 426 kts 248°
2026-05-05 01:38 39.27690 -120.94126 26026 ft 426 kts 233°
2026-05-05 01:38 39.25938 -120.97214 26052 ft 426 kts 233°
2026-05-05 01:39 39.24170 -121.00283 26019 ft 428 kts 233°
2026-05-05 01:39 39.22392 -121.03370 26023 ft 429 kts 233°
2026-05-05 01:39 39.20619 -121.06469 26024 ft 430 kts 233°
2026-05-05 01:39 39.18849 -121.09581 26019 ft 431 kts 233°
2026-05-05 01:40 39.17082 -121.12704 26021 ft 431 kts 233°
2026-05-05 01:40 39.15339 -121.15793 26020 ft 432 kts 233°
2026-05-05 01:40 39.13575 -121.18924 26022 ft 432 kts 233°
2026-05-05 01:40 39.11810 -121.22055 26037 ft 432 kts 234°
2026-05-05 01:41 39.10038 -121.25198 26040 ft 432 kts 234°
2026-05-05 01:41 39.08274 -121.28322 26029 ft 432 kts 234°
2026-05-05 01:41 39.06507 -121.31449 26032 ft 432 kts 233°
2026-05-05 01:41 39.04736 -121.34580 26036 ft 432 kts 233°
2026-05-05 01:42 39.02968 -121.37701 26038 ft 432 kts 233°
2026-05-05 01:42 39.01199 -121.40822 26030 ft 432 kts 233°
2026-05-05 01:42 38.99433 -121.43933 26028 ft 432 kts 233°
2026-05-05 01:42 38.97662 -121.47051 26027 ft 432 kts 233°
2026-05-05 01:43 38.95890 -121.50167 26030 ft 432 kts 233°
2026-05-05 01:43 38.94136 -121.53250 26038 ft 432 kts 233°
2026-05-05 01:43 38.92361 -121.56365 26030 ft 433 kts 233°
2026-05-05 01:43 38.90581 -121.59487 26033 ft 433 kts 233°
2026-05-05 01:44 38.88798 -121.62609 26038 ft 434 kts 233°
2026-05-05 01:44 38.87013 -121.65734 26037 ft 434 kts 233°
2026-05-05 01:44 38.85226 -121.68859 26050 ft 434 kts 233°
2026-05-05 01:44 38.83436 -121.71986 26042 ft 435 kts 233°
2026-05-05 01:45 38.81642 -121.75116 26042 ft 436 kts 233°
2026-05-05 01:45 38.79850 -121.78240 26036 ft 436 kts 233°
2026-05-05 01:45 38.78050 -121.81374 26029 ft 436 kts 233°
2026-05-05 01:45 38.76254 -121.84500 26037 ft 436 kts 233°
2026-05-05 01:46 38.74454 -121.87629 26029 ft 436 kts 233°
2026-05-05 01:46 38.72650 -121.90763 26023 ft 436 kts 233°
2026-05-05 01:46 38.71460 -121.92827 26022 ft 436 kts 233°
2026-05-05 01:46 38.69046 -121.97013 26031 ft 436 kts 233°
2026-05-05 01:47 38.67854 -121.99076 26020 ft 436 kts 233°
2026-05-05 01:47 38.66051 -122.02197 26032 ft 436 kts 233°
2026-05-05 01:47 38.64248 -122.05315 26033 ft 436 kts 233°
2026-05-05 01:47 38.62444 -122.08431 26024 ft 436 kts 233°
2026-05-05 01:48 38.60641 -122.11542 26038 ft 436 kts 233°
2026-05-05 01:48 38.58836 -122.14653 26024 ft 435 kts 233°
2026-05-05 01:48 38.57032 -122.17762 26024 ft 435 kts 233°
2026-05-05 01:48 38.55231 -122.20860 26041 ft 435 kts 233°
2026-05-05 01:49 38.53428 -122.23958 25757 ft 434 kts 233°
2026-05-05 01:49 38.51636 -122.27036 25461 ft 430 kts 233°
2026-05-05 01:49 38.49853 -122.30095 25098 ft 428 kts 233°
2026-05-05 01:49 38.48076 -122.33142 24726 ft 426 kts 233°
2026-05-05 01:50 38.46309 -122.36167 24365 ft 424 kts 233°
2026-05-05 01:50 38.44548 -122.39181 23983 ft 423 kts 233°
2026-05-05 01:50 38.42788 -122.42190 23619 ft 422 kts 233°
2026-05-05 01:50 38.41037 -122.45181 23126 ft 421 kts 233°
2026-05-05 01:51 38.39287 -122.48167 22729 ft 419 kts 233°
2026-05-05 01:51 38.37545 -122.51136 22329 ft 417 kts 233°
2026-05-05 01:51 38.35838 -122.54045 21955 ft 414 kts 233°
2026-05-05 01:51 38.34117 -122.56974 21573 ft 412 kts 233°
2026-05-05 01:52 38.32400 -122.59894 21180 ft 410 kts 233°
2026-05-05 01:52 38.30696 -122.62790 20803 ft 407 kts 233°
2026-05-05 01:52 38.29002 -122.65665 20422 ft 404 kts 233°
2026-05-05 01:52 38.27331 -122.68500 20047 ft 395 kts 233°
2026-05-05 01:53 38.25701 -122.71262 19690 ft 386 kts 233°
2026-05-05 01:53 38.23891 -122.73702 19313 ft 376 kts 212°
2026-05-05 01:53 38.21585 -122.75104 19011 ft 363 kts 191°
2026-05-05 01:53 38.19112 -122.75576 18677 ft 358 kts 174°
2026-05-05 01:54 38.16678 -122.75188 18303 ft 351 kts 162°
2026-05-05 01:54 38.14302 -122.74504 17900 ft 349 kts 161°
2026-05-05 01:54 38.11940 -122.73778 17526 ft 349 kts 161°
2026-05-05 01:54 38.09585 -122.73055 17126 ft 348 kts 161°
2026-05-05 01:55 38.07234 -122.72347 16769 ft 347 kts 162°
2026-05-05 01:55 38.04885 -122.71652 16418 ft 346 kts 162°
2026-05-05 01:55 38.02536 -122.70964 16046 ft 346 kts 163°
2026-05-05 01:55 38.00189 -122.70283 15685 ft 346 kts 163°
2026-05-05 01:56 37.97846 -122.69605 15330 ft 345 kts 163°
2026-05-05 01:56 37.95514 -122.68932 14968 ft 344 kts 163°
2026-05-05 01:56 37.93190 -122.68260 14613 ft 340 kts 163°
2026-05-05 01:56 37.90908 -122.67584 14267 ft 332 kts 160°
2026-05-05 01:57 37.88892 -122.66302 13920 ft 319 kts 139°
2026-05-05 01:57 37.87217 -122.64521 13578 ft 312 kts 136°
2026-05-05 01:57 37.85607 -122.62769 13208 ft 308 kts 136°
2026-05-05 01:57 37.83979 -122.61017 12872 ft 307 kts 137°
2026-05-05 01:58 37.82353 -122.59283 12544 ft 305 kts 137°
2026-05-05 01:58 37.80710 -122.57537 12223 ft 304 kts 137°
2026-05-05 01:58 37.79091 -122.55821 11893 ft 303 kts 137°
2026-05-05 01:58 37.77502 -122.54139 11585 ft 302 kts 137°
2026-05-05 01:59 37.75892 -122.52438 11285 ft 302 kts 137°
2026-05-05 01:59 37.74284 -122.50734 11098 ft 301 kts 137°
2026-05-05 01:59 37.72686 -122.49040 11018 ft 297 kts 137°
2026-05-05 01:59 37.71176 -122.47302 10984 ft 290 kts 126°
2026-05-05 02:00 37.70271 -122.45100 11014 ft 283 kts 106°
2026-05-05 02:00 37.69704 -122.42700 11000 ft 287 kts 103°
2026-05-05 02:00 37.69173 -122.40251 10998 ft 290 kts 103°
2026-05-05 02:00 37.68645 -122.37792 10998 ft 289 kts 103°
2026-05-05 02:01 37.68116 -122.35348 10979 ft 288 kts 103°
2026-05-05 02:01 37.67593 -122.32919 10981 ft 286 kts 103°
2026-05-05 02:01 37.67080 -122.30525 10973 ft 280 kts 103°
2026-05-05 02:01 37.66573 -122.28138 11010 ft 282 kts 103°
2026-05-05 02:02 37.66069 -122.25763 10986 ft 279 kts 102°
2026-05-05 02:02 37.65559 -122.23410 10993 ft 277 kts 103°
2026-05-05 02:02 37.65049 -122.21069 11000 ft 276 kts 103°
2026-05-05 02:02 37.64537 -122.18743 11003 ft 274 kts 103°
2026-05-05 02:03 37.63969 -122.16476 10969 ft 268 kts 114°
2026-05-05 02:03 37.62857 -122.14568 10642 ft 275 kts 130°
2026-05-05 02:03 37.61518 -122.12847 10262 ft 274 kts 133°
2026-05-05 02:03 37.60178 -122.11149 9877 ft 272 kts 132°
2026-05-05 02:04 37.58856 -122.09493 9502 ft 264 kts 133°
2026-05-05 02:04 37.57578 -122.07876 9073 ft 256 kts 133°
2026-05-05 02:04 37.56346 -122.06310 8666 ft 247 kts 133°
2026-05-05 02:04 37.55175 -122.04779 8270 ft 238 kts 133°
2026-05-05 02:05 37.54052 -122.03289 7859 ft 231 kts 133°
2026-05-05 02:05 37.52958 -122.01871 7450 ft 225 kts 141°
2026-05-05 02:05 37.51561 -122.01092 7040 ft 219 kts 174°
2026-05-05 02:05 37.50101 -122.01440 6644 ft 215 kts 208°
2026-05-05 02:06 37.49081 -122.02759 6252 ft 214 kts 242°
2026-05-05 02:06 37.48753 -122.04573 5861 ft 214 kts 265°
2026-05-05 02:06 37.49075 -122.06390 5509 ft 217 kts 298°
2026-05-05 02:06 37.49814 -122.08024 5220 ft 214 kts 296°
2026-05-05 02:07 37.50520 -122.09714 4672 ft 223 kts 296°
2026-05-05 02:07 37.51239 -122.11425 4339 ft 219 kts 297°
2026-05-05 02:07 37.51942 -122.13108 4037 ft 215 kts 296°
2026-05-05 02:07 37.52630 -122.14761 3742 ft 211 kts 296°
2026-05-05 02:08 37.53304 -122.16383 3460 ft 206 kts 296°
2026-05-05 02:08 37.53956 -122.17952 3201 ft 198 kts 296°
2026-05-05 02:08 37.54585 -122.19463 2926 ft 192 kts 296°
2026-05-05 02:08 37.55197 -122.20932 2675 ft 186 kts 296°
2026-05-05 02:09 37.55791 -122.22358 2421 ft 181 kts 296°
2026-05-05 02:09 37.56367 -122.23742 2175 ft 175 kts 296°
2026-05-05 02:09 37.56912 -122.25051 1944 ft 165 kts 296°
2026-05-05 02:09 37.57422 -122.26276 1733 ft 153 kts 296°
2026-05-05 02:10 37.57893 -122.27406 1530 ft 139 kts 296°
2026-05-05 02:10 37.58340 -122.28478 1355 ft 138 kts 296°
2026-05-05 02:10 37.58787 -122.29550 1162 ft 138 kts 296°
2026-05-05 02:10 37.59230 -122.30613 957 ft 134 kts 297°
2026-05-05 02:11 37.59659 -122.31640 770 ft 131 kts 298°
2026-05-05 02:11 37.60094 -122.32653 563 ft 132 kts 296°
2026-05-05 02:11 37.60508 -122.33682 412 ft 131 kts 298°
2026-05-05 02:11 37.60935 -122.34692 240 ft 131 kts 297°
2026-05-05 02:12 37.61362 -122.35726 67 ft 135 kts 296°
2026-05-05 02:12 37.62032 -122.37345 22 ft 49 kts 297°
2026-05-05 02:12 37.62143 -122.37620 22 ft 15 kts 287°
2026-05-05 02:13 37.62116 -122.37721 22 ft 11 kts 231°
2026-05-05 02:13 37.62088 -122.37764 22 ft 3 kts 229°
2026-05-05 02:13 37.62069 -122.37790 21 ft 6 kts 227°
2026-05-05 02:13 37.62027 -122.37850 21 ft 12 kts 228°
2026-05-05 02:14 37.61970 -122.37930 21 ft 11 kts 228°
2026-05-05 02:14 37.61918 -122.37994 22 ft 9 kts 205°
2026-05-05 02:14 37.61860 -122.37991 21 ft 8 kts 161°
2026-05-05 02:14 37.61807 -122.37983 21 ft 7 kts 217°
2026-05-05 02:15 37.61790 -122.38041 21 ft 6 kts 258°
2026-05-05 02:15 37.61786 -122.38064 21 ft 0 kts 258°
2026-05-05 02:15 37.61785 -122.38069 21 ft 0 kts 258°